Regional Weather Roundup
Issued by NWS Charleston, SC

Current Version | Previous Version | Graphics & Text | Print | Product List | Glossary On
Versions: 1 2 3 4 5 6 7 8 9 10 11 12 13 14 15 16 17 18 19 20 21 22 23 24 25 26 27 28 29 30 31 32 33 34 35 36 37 38 39 40 41 42 43 44 45 46 47 48 49 50
000
ASUS42 KCHS 230726
RWRCHS

REGIONAL WEATHER ROUNDUP
NATIONAL WEATHER SERVICE CHARLESTON SC
200 AM EST THU FEB 23 2017

NOTE: "FAIR" INDICATES FEW OR NO CLOUDS BELOW 12,000 FEET WITH NO
SIGNIFICANT WEATHER AND/OR OBSTRUCTIONS TO VISIBILITY.

NOT ALL STATIONS ARE QUALITY CONTROLLED. USE DATA WITH CAUTION...
ESPECIALLY DEWPOINT OBSERVATIONS.

SCZ027-030-031-034>040-042>050-230800-
...SOUTHEAST SOUTH CAROLINA...

CITY           SKY/WX    TMP DP  RH WIND       PRES   REMARKS
N CHARLESTON   MOCLDY    61  57  87 NE8       29.84F
WATERFRONT PRK   N/A     62  60  93 NE5       29.84F
MOUNT PLEASANT PTSUNNY   61  59  94 CALM      29.84F
JOHNS ISLAND   FAIR      63  61  94 N6        29.83F
PINOPOLIS        N/A     61  57  88 E5        29.77F
MONCKS CORNER  PTSUNNY   57  55  94 NE6       29.86S
SUMMERVILLE    CLOUDY    59  55  88 CALM      29.86S
BEAUFORT MCAS  MOCLDY    63  61  93 NE7       29.82F
BEAUFORT ARPT  FAIR      61  59  94 NE7       29.81F
HILTON HEAD IS PTCLDY    64  61  88 NE9       29.81F
WALTERBORO     CLOUDY    59  57  94 NE5       29.85F
ALLENDALE      FAIR      61  59  94 CALM      29.84S

...SOUTHERN MIDLANDS AND PEE DEE...

CITY           SKY/WX    TMP DP  RH WIND       PRES   REMARKS
GEORGETOWN     PTSUNNY   57  55  94 NE6       29.88S
KINGSTREE      FAIR      57  54  88 NE3       29.88F
ORANGEBURG     PTCLDY    58  56  93 NE6       29.87S
BARNWELL       FAIR      61  59  94 NE6       29.87S
AIKEN          FAIR      57  54  88 N5        29.90F
MANNING        FAIR      55  46  71 MISG      29.88S
COLUMBIA       CLOUDY    63  56  78 CALM      29.88F
SUMTER         CLOUDY    58  53  85 NE6       29.87S
FLORENCE       MOCLDY    58  54  86 NE5       29.90S
MYRTLE BEACH   CLOUDY    60  54  80 NE6       29.89F
N MYRTLE BEACH PTCLDY    57  54  89 NE5       29.88F

$$

GAZ063-065-086>088-099>101-113>116-118-119-134>141-150-230800-
...SOUTHEAST GEORGIA...

CITY           SKY/WX    TMP DP  RH WIND       PRES   REMARKS
SAVANNAH ARPT  CLOUDY    62  59  90 NE7       29.80F
HUNTER AAF     CLOUDY    63  63 100 E3        29.77F
FORT STEWART   MOCLDY    62  60  95 CALM      29.77F
STATESBORO     CLOUDY    62  62 100 N3        29.83S
SYLVANIA       PTSUNNY  N/A N/A N/A NE6       29.84S
CLAXTON        FAIR     N/A N/A N/A CALM      29.81F

...CSRA...CENTRAL AND FAR SOUTHEAST GEORGIA...

CITY           SKY/WX    TMP DP  RH WIND       PRES   REMARKS
THOMSON        CLOUDY    60  60 100 CALM      29.91F
AUGUSTA-BUSH   PTCLDY    57  55  93 E6        29.85F
AUGUSTA-DANIEL CLOUDY    64  56  75 NE7       29.87F
SWAINSBORO     FAIR      61  61 100 NE7       29.85S
VIDALIA        CLOUDY    61  61 100 N5        29.83R
EASTMAN        FAIR      63  63 100 NE5       29.84F
HAZLEHURST     CLOUDY    63  63 100 N6        29.80S FOG
ALMA           CLOUDY    63  63 100 NE3       29.78F
WAYCROSS       MOCLDY    66  66 100 E6        29.76F
JESUP          CLOUDY    63  61  94 NE3       29.78F
BAXLEY         CLOUDY    63  63 100 NE6       29.79S
BRUNSWICK      CLOUDY    64  64 100 NE7       29.77F
SAINT SIMONS   CLOUDY    66  62  87 NE12      29.75F

$$

SCZ027-028-034-036>038-045-046-048>050-GAZ119-141-230800-
...LAKE AND SUPPLEMENTAL COASTAL OBSERVATIONS...

STATION/POSITION TIME  TEMP    WIND        PRES    WAVE   SWELL
                       AIR SEA DIR/SP/G            HT/PER HT/PER/DIR
                 (UTC) (F)     (DEG/KT/KT) (MB)    (FT/S) (FT/S/D)
WINYAH BAY       0645   61      50/  6     1011.0F
LAKE MURRAY      0650   61      90/  4/  7 1011.5F
ACE BASIN NERRS  0645   61      20/  1     1010.0S
FORT PULASKI     0700   63 61   70/ 13/ 16 1009.3
SAPELO ISLAND    0700   63      30/  6     1008.0

$$

ANZ835-935-AMZ111-154-330-350-352-354-370-450-454-472-230800-
...C-MAN AND BUOY OBSERVATIONS...

STATION/POSITION TIME  TEMP    WIND        PRES    WAVE   SWELL
                       AIR SEA DIR/SP/G            HT/PER HT/PER/DIR
                 (UTC) (F)     (DEG/KT/KT) (MB)    (FT/S) (FT/S/D)
BUOY 41004       0650   70 69  110/ 16/ 17 1009.4F   6/ 7   3/ 70/10
BUOY 41008       0650   65 62   70/  8/  8 1007.8F   7/ 7   7/130/ 7
FOLLY BEACH CMAN 0700   62      50/  9/ 10 1010.6F
CAPERS NEARSHORE 0608   61 59   50/  8/ 12 1010.6F
FRIPP NEARSHORE  0708   62 61   50/ 10/ 14 1008.9F


STATION/POSITION TIME  TEMP    WIND        PRES    WAVE   SWELL
                       AIR SEA DIR/SP/G            HT/PER HT/PER/DIR
                 (UTC) (F)     (DEG/KT/KT) (MB)    (FT/S) (FT/S/D)
5E ST. MARYS GA  0700      64                N/A     7/ 8
FRYING PAN BUOY  0710   69 70  150/ 16/ 19 1011.4
BUOY 41025       0650   68 73  180/ 16/ 17 1013.7F   4/10   2/ 70/10
CAPE LOOKOUT NC  0700   64     150/  7/  7 1012.8F
BUOY 41002       0650   67 70  110/ 21/ 25 1011.8F   6/11   3/ 70/11
BUOY 41010       NOT AVBL
ST AUGUSTINE FL  0700   69 67   70/ 18/ 20 1005.5F


$$




USA.gov is the U.S. government's official web portal to all federal, state and local government web resources and services.